Home   Weather   Weimar   Past weeks

Flag for Germany Past Weather in Weimar, Thuringia, Germany — Yesterday and Last 2 Weeks

Now
32 °F

Clear.


Feels Like: 32 °F
Forecast: 29 / 41 °F
Wind: 2 mph from North

Location: Erfurt-Bindersleben

Current Time: Dec 7, 2016 at 1:49:05 pm

Latest Report: Dec 7, 2016 at 1:20 pm


Visibility: 4 mi

Pressure: 30.45 "Hg

Humidity: 100%

Dew Point: 32 °F

Location of WeimarLocation

Past Weather in Weimar — Graph

°F

Weimar Temperature Yesterday

Maximum temperature yesterday: 25 °F (at 12:20 pm)
Minimum temperature yesterday: 19 °F (at 10:50 pm)
Average temperature yesterday: 23 °F

High & Low Weather Summary for the Past Weeks

 TemperatureHumidityPressure
High55 °F (Nov 22, 12:20 pm)100% (Nov 23, 12:50 am)30.54 "Hg (Nov 23, 12:50 am)
Low14 °F (Dec 5, 3:50 am)56% (Nov 30, 4:20 pm)29.89 "Hg (Nov 22, 12:20 pm)
Average32 °F91%30.24 "Hg
* Reported Nov 22 12:20 pm — Dec 7 12:20 pm, Weimar, Weather by CustomWeather, © 2016

Note: Actual official high and low records may vary slightly from our data, if they occured in-between our weather recording intervals... More about our weather records

Advertising

Weimar Weather History for the Previous 24 Hours

Scroll right to see more
 ConditionsComfort  
Time TempWeatherWind HumidityBarometerVisibility
12:20 pm
Wed, Dec 7
30 °FClear.5 mph100%30.48 "Hg4 mi
11:50 am30 °FClear.3 mph100%30.48 "Hg4 mi
11:20 am27 °FClear.3 mph100%30.48 "Hg4 mi
10:50 am27 °FClear.2 mph100%30.48 "Hg4 mi
10:20 am25 °FClear.3 mph100%30.48 "Hg4 mi
9:50 am25 °FSunny.3 mph93%30.48 "Hg10 mi
9:20 am23 °FSunny.5 mph93%30.48 "Hg10 mi
8:50 am19 °FSunny.5 mph100%30.48 "Hg10 mi
8:20 am18 °FSunny.5 mph100%30.48 "Hg10 mi
7:50 am18 °FClear.3 mph93%30.48 "Hg10 mi
7:20 am18 °FFog.5 mph93%30.48 "Hg5 mi
6:50 am18 °FSnow. Light fog.3 mph93%30.48 "Hg4 mi
6:20 am18 °FSnow. Overcast.3 mph93%30.48 "Hg4 mi
5:50 am18 °FIce fog.6 mph93%30.48 "Hg1 mi
5:20 am18 °FIce fog.5 mph100%30.48 "Hg0 mi
4:50 am19 °FIce fog.3 mph93%30.51 "Hg0 mi
4:20 am19 °FIce fog.3 mph93%30.51 "Hg0 mi
3:50 am19 °FIce fog.3 mph100%30.51 "Hg0 mi
3:20 am19 °FIce fog.3 mph100%30.51 "Hg0 mi
2:50 am21 °FIce fog.3 mph93%30.51 "Hg0 mi
2:20 am21 °FIce fog.2 mph100%30.51 "Hg0 mi
1:50 am21 °FIce fog.2 mph93%30.51 "Hg0 mi
1:20 am21 °FIce fog.1 mph93%30.51 "Hg0 mi
12:50 am19 °FIce fog.2 mph100%30.51 "Hg0 mi
12:20 am19 °FIce fog.2 mph100%30.51 "Hg0 mi
11:50 pm
Tue, Dec 6
19 °FIce fog.1 mph100%30.51 "Hg0 mi
11:20 pm19 °FIce fog.5 mph100%30.51 "Hg0 mi
10:50 pm19 °FIce fog.6 mph100%30.51 "Hg0 mi
10:20 pm21 °FIce fog.6 mph93%30.51 "Hg0 mi
9:50 pm21 °FIce fog.6 mph100%30.51 "Hg0 mi
9:20 pm21 °FIce fog.5 mph100%30.51 "Hg0 mi
8:50 pm23 °FIce fog.5 mph93%30.51 "Hg0 mi
8:20 pm23 °FIce fog.5 mph93%30.51 "Hg0 mi
7:50 pm23 °FIce fog.6 mph93%30.51 "Hg0 mi
6:50 pm23 °FIce fog.6 mph100%30.51 "Hg0 mi
6:20 pm23 °FIce fog.5 mph100%30.48 "Hg0 mi
5:50 pm23 °FIce fog.6 mph100%30.48 "Hg0 mi
5:20 pm25 °FIce fog.3 mph100%30.48 "Hg0 mi
4:50 pm25 °FIce fog.3 mph100%30.48 "Hg0 mi
4:20 pm25 °FIce fog.3 mph100%30.48 "Hg0 mi
3:50 pm25 °FIce fog.6 mph100%30.45 "Hg0 mi
3:20 pm25 °FCold.8 mph100%30.45 "HgN/A
2:50 pm25 °FIce fog.9 mph100%30.45 "Hg0 mi
2:20 pm25 °FIce fog.7 mph100%30.45 "Hg0 mi
1:50 pm25 °FIce fog.6 mph100%30.45 "Hg0 mi
1:20 pm25 °FIce fog.6 mph100%30.45 "Hg0 mi
Weather by CustomWeather, © 2016

See weather overviewHow to use our weather pages